Weather in Aleksandrovka

Russia / Chelyabinsk Oblast     54°46′10″N   61°30′30″E
temp.,
°C
wind,
m/s
gust,
m/s
humid.,
%
clouds,
%
prec.,
mm/h
press.,
hPa
HPBL,
m
8 march, mon
mon823:00−13nw6128668 0.3 1009286
02:00−18wnw48900 0.0 101095
05:00−19w44890 0.0 101243
08:00−19ssw448633 0.0 101260
11:00−13ssw6118867 0.0 1010368
14:00−8ssw91488100 0.6 1008938
17:00−5sw81487100 0.7 10061127
20:00−7sw7178288 0.0 1006561
9 march, tue
tue923:00−6sw9188165 0.0 1007487
02:00−7ssw6148771 0.0 1008383
05:00−6ssw7148785 0.0 1007539
08:00−6ssw91685100 0.0 1004731
11:00−4sw10178076 0.0 10041100
14:00−3w8137227 0.0 10071470
17:00−4w378041 0.0 1010231
20:00−9wsw2377100 0.0 101221
10 march, wed
wed1023:00−10ssw1284100 0.0 101221
02:00−11sse2383100 0.0 101021
05:00−10se3692100 0.0 1008130
08:00−8se51195100 0.4 1005358
11:00−6se6995100 1.2 1001391
14:00−3sse6995100 0.8 998611
17:00−3ssw6991100 1.8 997756
20:00−10sw8148133 0.0 997353
11 march, thu
thu1123:00−15wsw6118354 0.0 998255
02:00−15wsw7138984 0.0 999384
05:00−14nw8149292 0.4 1001729
08:00−16nw71394100 0.4 1003741
11:00−15nnw81190100 0.9 1005842
14:00−13nnw71091100 0.5 10071020
17:00−13nw71081100 0.9 1009964
20:00−18wnw4108585 0.0 1012184
12 march, fri
fri1223:00−17nw6128991 0.1 1015564
02:00−20wnw4986100 0.0 1016249
05:00−23w369784 0.1 101794
08:00−21wnw2394100 0.1 101974
11:00−18nnw359093 0.1 1021442
14:00−16nw357694 0.0 1023669
17:00−14ssw248779 0.0 1023230
20:00−17sw459425 0.0 102465